User: anonymous   Login
Location: Unspecified
(50.1700°N, 6.8600°E)
Time: 00:11:26
(UTC+00:00)
Language:

Cosmos 1726 - Orbit

View from above orbital plane
View from above orbital plane
View from above satellite
View from above satellite

Ground track
Ground track

The orbit data is extracted from the following two-line orbital elements,

1 16495U 86006A   19078.62240734  .00000877  00000-0  34305-4 0  9999
2 16495  82.4740 148.3495 0014558 107.2472 253.0360 15.24348417813844
Epoch (UTC): 19 March 2019 14:56:15
Eccentricity: 0.0014558
inclination: 82.4740°
perigee height: 483 km
apogee height: 503 km
right ascension of ascending node: 148.3495°
argument of perigee: 107.2472°
revolutions per day: 15.24348417
mean anomaly at epoch: 253.0360°
orbit number at epoch: 81384

The dashed part of the orbit path shows where the satellite is in the earth's shadow,  

DLR